Simultaneous Nadir Overpasses (SNOs) Predictions

Prediction of SNOs between AURA and NPP Satellite Orbit:

Table of predicted SNOs for the next 14.0 days since TLE Epoch: 11/3/2017
Index Date (AURA) Time (AURA) Lat,Lon (AURA) SZA (AURA ) Date (NPP) Time (NPP) Lat,Lon (NPP) SZA (NPP ) Distance(km) Time Diff (sec)
1 11/06/2017 02:51:56 79.54, 34.12 107.34 11/06/2017 02:51:21 79.55, 34.18 107.35 1.31 35
2 11/06/2017 03:41:17 -79.78,-156.51 72.99 11/06/2017 03:41:59 -79.78,-156.42 73.03 1.75 42
3 11/08/2017 19:08:22 79.66, 150.86 107.95 11/08/2017 19:08:11 79.67, 151.00 107.93 2.75 11
4 11/08/2017 19:57:46 -79.79, -40.55 72.22 11/08/2017 19:58:53 -79.78, -40.69 72.25 3.05 67
5 11/11/2017 10:35:33 -79.42, 97.38 70.99 11/11/2017 10:34:29 -79.42, 97.40 70.94 0.44 64
6 11/11/2017 11:24:52 79.67, -93.24 108.69 11/11/2017 11:25:06 79.66, -93.31 108.70 1.48 14
7 11/14/2017 02:52:02 -79.46,-146.49 70.32 11/14/2017 02:51:23 -79.45,-146.63 70.26 2.88 39
8 11/14/2017 03:41:19 79.77, 23.44 109.26 11/14/2017 03:41:57 79.78, 23.51 109.22 1.49 38
9 11/16/2017 19:08:27 -79.63, -29.35 69.88 11/16/2017 19:08:12 -79.64, -29.30 69.87 1.02 15




NCC Satellite Simultaneous Nadir Overpasses (SNOs) Prediction Service
